This demonstration page uses our WeatherBlox Daily Observations layout. Learn more.

Left ArrowRight Arrow

Hourly Observations for November 29, 2022

Temp ( °F °C ) Dew Point ( °F °C ) Humidity (%) Winds ( mph kmh ) Pressure ( in mb ) Visibility ( mi km ) Precip ( " mm )
12:53 am 00:53 Clear 41 5 39 3.9 93 93 Calm 30.07 1018 10 16 0.00 0.00
1:53 am 01:53 Clear 39 3.9 38 3.3 96 96 Calm 30.08 1019 10 16 0.00 0.00
2:53 am 02:53 Clear 40 4.4 38 3.3 93 93 Calm 30.08 1019 10 16 0.00 0.00
3:53 am 03:53 Clear 38 3.3 37 2.8 97 97 Calm 30.09 1019 10 16 0.00 0.00
4:53 am 04:53 Clear 37 2.8 36 2.2 96 96 Calm 30.10 1019 10 16 0.00 0.00
5:53 am 05:53 Clear 37 2.8 36 2.2 96 96 Calm 30.12 1020 10 16 0.00 0.00
6:53 am 06:53 Clear 37 2.8 36 2.2 96 96 Calm 30.14 1021 10 16 0.00 0.00
7:53 am 07:53 Sunny 36 2.2 36 2.2 100 100 Calm 30.16 1021 10 16 0.00 0.00
8:53 am 08:53 Sunny 45 7.2 43 6.1 93 93 Calm 30.18 1022 10 16 0.00 0.00
9:53 am 09:53 Sunny 53 11.7 46 7.8 77 77 Calm 30.18 1022 10 16 0.00 0.00
10:53 am 10:53 Sunny 59 15 43 6.1 55 55 SE 8 13 30.18 1022 10 16 0.00 0.00
11:53 am 11:53 Sunny 62 16.7 45 7.2 53 53 SE 7 11 30.15 1021 10 16 0.00 0.00
12:53 pm 12:53 Sunny 65 18.3 46 7.8 50 50 ESE 8 13 30.10 1019 10 16 0.00 0.00
1:53 pm 13:53 Sunny 67 19.4 48 8.9 51 51 SSE 9 15 30.06 1018 10 16 0.00 0.00
2:53 pm 14:53 Mostly Sunny 68 20 48 8.9 49 49 SSE 10 17 30.04 1017 10 16 0.00 0.00
3:53 pm 15:53 Mostly Sunny 68 20 48 8.9 49 49 ESE 9 15 30.02 1017 10 16 0.00 0.00
4:53 pm 16:53 Cloudy 68 20 49 9.4 50 50 SSE 10 17 30.00 1016 10 16 0.00 0.00
5:53 pm 17:53 Cloudy 67 19.4 50 10 55 55 SE 9 15 30.01 1016 10 16 0.00 0.00
6:53 pm 18:53 Cloudy 67 19.4 51 10.6 57 57 VRB 6 9 30.01 1016 10 16 0.00 0.00
7:53 pm 19:53 Cloudy 65 18.3 53 11.7 65 65 VRB 3 6 30.01 1016 10 16 0.01 0.13
8:53 pm 20:53 Cloudy 65 18.3 53 11.7 65 65 VRB 5 7 30.00 1016 10 16 0.00 0.00
9:53 pm 21:53 Cloudy with Light Rain 62 16.7 57 13.9 84 84 E 3 6 30.02 1017 9 14 0.03 0.76
10:21 pm 22:21 Cloudy with Heavy Rain 60 15.6 58 14.4 93 93 Calm 30.03 1017 2 3 0.11 2.79
10:33 pm 22:33 Cloudy with Rain 59 15 58 14.4 96 96 ENE 3 6 30.02 1017 3 5 0.17 4.32
10:53 pm 22:53 Cloudy with Light Rain 60 15.6 59 15 96 96 ENE 5 7 30.00 1016 10 16 0.18 4.57
11:50 pm 23:50 Cloudy with Thunderstorms 59 15 57 14 94 94 ENE 9 15 29.95 1014 7 11 0.04 1.02
11:53 pm 23:53 Cloudy with Thunderstorms 59 15 58 14.4 96 96 NE 7 11 29.96 1014 9 14 0.04 1.02

Powered by AerisWeather